FW5801 Weather Reports


Display with metric or nautical units.
time (UTC)temp
F
wind
direction
speed
MPH
gust
MPH
rain 1hr
in
rain 24hr
in
rain mn
in
humidity
%
barometer
mb
20260904042059 75 0 0.0 0.0 0.00 0.00 0.00 84 1016.6
20260904041603 75 0 0.0 0.0 0.00 0.00 0.00 83 1016.5
20260904041058 75 0 0.0 0.0 0.00 0.00 0.00 83 1016.6
20260904040602 75 0 0.0 0.0 0.00 0.00 0.00 83 1016.4
20260904040107 75 0 0.0 0.0 0.00 0.00 0.00 83 1016.5
20260904035559 75 0 0.0 0.0 0.00 0.00 0.00 83 1016.4
20260904035100 75 0 0.0 0.0 0.00 0.00 0.00 83 1016.2
20260904034603 75 0 0.0 0.0 0.00 0.00 0.00 83 1016.2
20260904034058 75 0 0.0 0.0 0.00 0.00 0.00 83 1016.1
20260904033558 75 0 0.0 0.0 0.00 0.00 0.00 83 1016.2
20260904033105 75 0 0.0 0.0 0.00 0.00 0.00 83 1016.3
20260904032557 75 0 0.0 0.0 0.00 0.00 0.00 83 1016.3
20260904032057 75 0 0.0 0.0 0.00 0.00 0.00 83 1016.6
20260904031608 75 0 0.0 0.0 0.00 0.00 0.00 83 1016.7
20260904031058 75 0 0.0 0.0 0.00 0.00 0.00 83 1016.5
20260904030558 75 0 0.0 0.0 0.00 0.00 0.00 83 1016.6
20260904030107 75 0 0.0 0.0 0.00 0.00 0.00 83 1016.6
20260904025603 75 0 0.0 0.0 0.00 0.00 0.00 83 1016.5
20260904025058 75 0 0.0 0.0 0.00 0.00 0.00 83 1016.6
20260904024606 76 0 0.0 0.0 0.00 0.00 0.00 82 1016.6
20260904024100 76 0 0.0 0.0 0.00 0.00 0.00 82 1016.6
20260904023558 76 0 0.0 0.0 0.00 0.00 0.00 82 1016.7
20260904023105 76 0 0.0 3.0 0.00 0.00 0.00 82 1016.7
20260904022558 76 0 0.0 4.0 0.00 0.00 0.00 81 1016.8
20260904022101 77 351 1.0 5.0 0.00 0.00 0.00 80 1016.8
20260904021609 77 0 2.0 5.0 0.00 0.00 0.00 80 1016.8
20260904021100 77 0 1.0 9.0 0.00 0.00 0.00 79 1016.6
20260904020559 78 0 1.0 11.0 0.00 0.00 0.00 78 1016.6
20260904020118 79 53 3.0 11.0 0.00 0.00 0.00 76 1016.5
20260904015600 80 42 5.0 14.0 0.00 0.00 0.00 75 1016.4
20260904015058 81 51 6.0 14.0 0.00 0.00 0.00 74 1016.5
20260904014627 82 44 5.0 11.0 0.00 0.00 0.00 72 1016.4
20260904014058 83 275 1.0 7.0 0.00 0.00 0.00 71 1016.0
20260904013558 83 252 2.0 7.0 0.00 0.00 0.00 71 1015.9
20260904013104 83 262 2.0 8.0 0.00 0.00 0.00 70 1015.8
20260904012600 83 244 3.0 8.0 0.00 0.00 0.00 70 1015.9
20260904012101 83 273 2.0 8.0 0.00 0.00 0.00 70 1016.0
20260904011603 83 276 2.0 8.0 0.00 0.00 0.00 70 1016.0
20260904011102 83 261 3.0 8.0 0.00 0.00 0.00 71 1015.9
20260904010600 83 236 3.0 6.0 0.00 0.00 0.00 71 1015.9
20260904010104 83 242 1.0 5.0 0.00 0.00 0.00 71 1015.9
20260904005558 83 0 1.0 7.0 0.00 0.00 0.00 71 1016.1
20260904005058 83 229 3.0 7.0 0.00 0.00 0.00 71 1016.0
20260904004608 84 246 1.0 5.0 0.00 0.00 0.00 71 1016.2
20260904004058 84 0 0.0 4.0 0.00 0.00 0.00 70 1016.1
20260904003601 84 0 1.0 4.0 0.00 0.00 0.00 69 1016.1
20260904003104 84 0 0.0 5.0 0.00 0.00 0.00 69 1016.0
20260904002558 85 0 1.0 5.0 0.00 0.00 0.00 68 1015.8
20260904002059 85 246 1.0 6.0 0.00 0.00 0.00 68 1015.7
20260904001600 85 0 1.0 6.0 0.00 0.00 0.00 67 1015.8
20260904001102 86 0 1.0 5.0 0.00 0.00 0.00 67 1015.8
20260904000558 86 268 1.0 4.0 0.00 0.00 0.00 66 1015.9
20260904000123 86 268 2.0 6.0 0.00 0.00 0.00 65 1016.0
20260903235601 87 0 2.0 6.0 0.00 0.00 0.00 64 1016.0
20260903235057 87 273 2.0 4.0 0.00 0.00 0.00 64 1015.9
20260903234603 87 278 1.0 8.0 0.00 0.00 0.00 64 1016.0
20260903234058 87 271 2.0 8.0 0.00 0.00 0.00 63 1015.9
20260903233600 88 278 3.0 8.0 0.00 0.00 0.00 62 1015.8
20260903233105 88 279 3.0 7.0 0.00 0.00 0.00 62 1015.8
20260903232558 89 257 1.0 6.0 0.00 0.00 0.00 62 1015.7
20260903232058 89 271 2.0 8.0 0.00 0.00 0.00 61 1015.7
20260903231601 89 281 2.0 8.0 0.00 0.00 0.00 60 1015.6
20260903231101 90 267 3.0 8.0 0.00 0.00 0.00 59 1015.8
20260903230558 90 275 4.0 8.0 0.00 0.00 0.00 59 1015.7
20260903230107 90 273 3.0 7.0 0.00 0.00 0.00 59 1015.8
20260903225557 91 252 2.0 7.0 0.00 0.00 0.00 58 1015.8
20260903225057 91 257 3.0 10.0 0.00 0.00 0.00 58 1015.7
20260903224624 91 286 3.0 10.0 0.00 0.00 0.00 57 1015.7
20260903224058 91 274 3.0 10.0 0.00 0.00 0.00 56 1015.8
20260903223558 91 281 4.0 12.0 0.00 0.00 0.00 57 1015.8
20260903223104 91 255 3.0 12.0 0.00 0.00 0.00 57 1015.8
20260903222558 92 265 4.0 12.0 0.00 0.00 0.00 56 1015.8
20260903222058 92 273 7.0 12.0 0.00 0.00 0.00 55 1015.6
20260903221605 93 283 5.0 9.0 0.00 0.00 0.00 55 1015.7
20260903221057 93 273 3.0 9.0 0.00 0.00 0.00 53 1015.7
20260903220558 93 263 3.0 11.0 0.00 0.00 0.00 54 1015.5
20260903220104 93 267 5.0 13.0 0.00 0.00 0.00 53 1015.5
20260903215557 93 261 7.0 13.0 0.00 0.00 0.00 53 1015.5
20260903215058 93 275 5.0 13.0 0.00 0.00 0.00 52 1015.4
20260903214613 93 262 6.0 12.0 0.00 0.00 0.00 52 1015.4
20260903214058 94 273 7.0 13.0 0.00 0.00 0.00 52 1015.1
20260903213558 94 210 3.0 13.0 0.00 0.00 0.00 53 1014.9
20260903213113 94 281 7.0 13.0 0.00 0.00 0.00 51 1014.9
20260903212558 94 256 6.0 12.0 0.00 0.00 0.00 52 1014.7
20260903212058 94 275 5.0 14.0 0.00 0.00 0.00 53 1014.7
20260903211609 93 285 6.0 15.0 0.00 0.00 0.00 52 1014.7
20260903211100 93 240 8.0 15.0 0.00 0.00 0.00 50 1014.7
20260903210558 94 261 7.0 14.0 0.00 0.00 0.00 51 1014.5
20260903210127 94 281 6.0 11.0 0.00 0.00 0.00 54 1014.5
20260903205558 94 258 6.0 11.0 0.00 0.00 0.00 53 1014.4
20260903205057 94 276 6.0 11.0 0.00 0.00 0.00 53 1014.4
20260903204603 94 277 6.0 11.0 0.00 0.00 0.00 54 1014.4
20260903204058 94 261 6.0 13.0 0.00 0.00 0.00 54 1014.4
20260903203557 93 273 5.0 17.0 0.00 0.00 0.00 53 1014.4
20260903203114 94 271 7.0 17.0 0.00 0.00 0.00 53 1014.6
20260903202601 94 271 7.0 17.0 0.00 0.00 0.00 52 1014.7
20260903202100 95 240 6.0 12.0 0.00 0.00 0.00 51 1014.8
20260903201606 95 250 6.0 11.0 0.00 0.00 0.00 53 1014.9
20260903201100 95 289 6.0 11.0 0.00 0.00 0.00 52 1015.0
20260903200600 95 263 5.0 12.0 0.00 0.00 0.00 53 1015.2
20260903200111 95 292 5.0 12.0 0.00 0.00 0.00 54 1015.4
20260903195559 95 275 7.0 14.0 0.00 0.00 0.00 51 1015.6
20260903195057 95 291 4.0 14.0 0.00 0.00 0.00 52 1015.6
20260903194603 95 272 8.0 13.0 0.00 0.00 0.00 52 1015.9
20260903194100 95 293 4.0 16.0 0.00 0.00 0.00 52 1015.9
20260903193556 95 265 8.0 16.0 0.00 0.00 0.00 53 1016.0
20260903193102 95 265 7.0 13.0 0.00 0.00 0.00 52 1016.0
20260903192557 95 296 7.0 13.0 0.00 0.00 0.00 51 1016.1
20260903192100 95 269 6.0 15.0 0.00 0.00 0.00 52 1016.2
20260903191602 95 218 5.0 15.0 0.00 0.00 0.00 52 1016.2
20260903191100 95 269 8.0 15.0 0.00 0.00 0.00 51 1016.3
20260903190600 95 233 4.0 13.0 0.00 0.00 0.00 51 1016.2
20260903190104 95 248 5.0 13.0 0.00 0.00 0.00 52 1016.2
20260903185600 95 256 6.0 13.0 0.00 0.00 0.00 54 1016.2
20260903185100 95 271 6.0 13.0 0.00 0.00 0.00 52 1016.3
20260903184601 95 238 7.0 13.0 0.00 0.00 0.00 51 1016.4
20260903184101 95 241 6.0 13.0 0.00 0.00 0.00 52 1016.4
20260903183602 95 248 6.0 13.0 0.00 0.00 0.00 52 1016.5
20260903183104 95 254 4.0 13.0 0.00 0.00 0.00 51 1016.5
20260903182602 95 277 7.0 13.0 0.00 0.00 0.00 48 1016.6
20260903182056 95 242 6.0 17.0 0.00 0.00 0.00 49 1016.5
20260903181603 95 273 6.0 17.0 0.00 0.00 0.00 51 1016.7
20260903181100 95 265 6.0 13.0 0.00 0.00 0.00 53 1016.6
20260903180600 95 283 7.0 12.0 0.00 0.00 0.00 52 1016.7
20260903180104 96 302 6.0 11.0 0.00 0.00 0.00 50 1016.8
20260903175557 95 277 4.0 11.0 0.00 0.00 0.00 53 1016.7
20260903175100 95 289 6.0 11.0 0.00 0.00 0.00 51 1016.9
20260903174603 95 277 4.0 13.0 0.00 0.00 0.00 51 1016.9
20260903174059 95 240 6.0 13.0 0.00 0.00 0.00 53 1017.0
20260903173600 94 290 5.0 13.0 0.00 0.00 0.00 54 1017.0
20260903173106 94 0 7.0 13.0 0.00 0.00 0.00 55 1017.1
20260903172600 94 279 6.0 13.0 0.00 0.00 0.00 52 1017.1
20260903172100 94 302 6.0 13.0 0.00 0.00 0.00 56 1017.0
20260903171617 94 294 6.0 16.0 0.00 0.00 0.00 54 1017.1
20260903171056 94 256 7.0 16.0 0.00 0.00 0.00 57 1017.1
20260903170557 94 306 3.0 11.0 0.00 0.00 0.00 57 1017.2
20260903165556 95 207 5.0 12.0 0.00 0.00 0.00 53 1017.0
20260903165100 95 273 4.0 9.0 0.00 0.00 0.00 55 1017.1
20260903164627 95 277 4.0 9.0 0.00 0.00 0.00 56 1017.1
20260903164100 95 321 3.0 11.0 0.00 0.00 0.00 55 1017.3
20260903163559 94 278 4.0 11.0 0.00 0.00 0.00 55 1017.2
20260903163101 94 257 5.0 11.0 0.00 0.00 0.00 57 1017.3
20260903162600 94 296 5.0 10.0 0.00 0.00 0.00 55 1017.4
20260903162057 94 289 4.0 8.0 0.00 0.00 0.00 58 1017.4
20260903161603 94 315 2.0 8.0 0.00 0.00 0.00 57 1017.4
20260903161056 94 355 2.0 6.0 0.00 0.00 0.00 59 1017.5
20260903160559 93 0 2.0 9.0 0.00 0.00 0.00 60 1017.6
20260903160128 93 0 1.0 9.0 0.00 0.00 0.00 60 1017.5
20260903155604 92 340 2.0 10.0 0.00 0.00 0.00 59 1017.5
20260903155100 92 340 4.0 10.0 0.00 0.00 0.00 60 1017.6
20260903154610 92 315 5.0 10.0 0.00 0.00 0.00 59 1017.5
20260903154100 92 269 4.0 10.0 0.00 0.00 0.00 61 1017.5
20260903153559 92 261 4.0 9.0 0.00 0.00 0.00 61 1017.6
20260903153108 91 267 2.0 9.0 0.00 0.00 0.00 63 1017.6
20260903152600 91 273 3.0 9.0 0.00 0.00 0.00 63 1017.5
20260903152102 91 244 4.0 9.0 0.00 0.00 0.00 63 1017.4
20260903151608 90 270 4.0 10.0 0.00 0.00 0.00 63 1017.5
20260903151057 90 270 5.0 10.0 0.00 0.00 0.00 64 1017.5
20260903150600 90 267 2.0 11.0 0.00 0.00 0.00 66 1017.5
20260903150111 89 345 5.0 11.0 0.00 0.00 0.00 65 1017.5
20260903145559 89 258 4.0 11.0 0.00 0.00 0.00 64 1017.5
20260903145056 89 269 4.0 10.0 0.00 0.00 0.00 66 1017.5
20260903144607 88 313 5.0 10.0 0.00 0.00 0.00 66 1017.6
20260903144058 88 274 5.0 9.0 0.00 0.00 0.00 66 1017.5
20260903143558 88 309 4.0 9.0 0.00 0.00 0.00 66 1017.5
20260903143112 88 273 5.0 10.0 0.00 0.00 0.00 67 1017.5
20260903142600 87 304 4.0 11.0 0.00 0.00 0.00 68 1017.6
20260903142056 87 262 4.0 11.0 0.00 0.00 0.00 69 1017.6
20260903141614 87 265 5.0 11.0 0.00 0.00 0.00 68 1017.5
20260903141057 87 277 3.0 9.0 0.00 0.00 0.00 70 1017.6
20260903140600 86 276 4.0 10.0 0.00 0.00 0.00 70 1017.6
20260903140107 86 286 5.0 10.0 0.00 0.00 0.00 70 1017.7
20260903135601 85 265 3.0 9.0 0.00 0.00 0.00 71 1017.7
20260903135100 85 279 4.0 9.0 0.00 0.00 0.00 71 1017.5
20260903134605 84 0 3.0 9.0 0.00 0.00 0.00 74 1017.6
20260903134100 84 280 4.0 10.0 0.00 0.00 0.00 74 1017.7
20260903133556 83 273 5.0 10.0 0.00 0.00 0.00 74 1017.7
20260903133111 83 261 4.0 10.0 0.00 0.00 0.00 76 1017.8
20260903132556 82 250 4.0 11.0 0.00 0.00 0.00 76 1017.7
20260903132059 82 250 4.0 11.0 0.00 0.00 0.00 77 1017.8
20260903131603 82 250 4.0 9.0 0.00 0.00 0.00 78 1017.8
20260903131100 81 257 3.0 9.0 0.00 0.00 0.00 78 1017.9
20260903130559 81 270 4.0 10.0 0.00 0.00 0.00 78 1018.0
20260903130105 80 265 4.0 10.0 0.00 0.00 0.00 80 1018.0
20260903125559 80 266 3.0 9.0 0.00 0.00 0.00 80 1018.0
20260903125100 79 255 4.0 9.0 0.00 0.00 0.00 81 1018.0
20260903124607 79 256 3.0 10.0 0.00 0.00 0.00 82 1018.2
20260903124056 78 266 4.0 10.0 0.00 0.00 0.00 82 1017.9
20260903123559 78 255 2.0 9.0 0.00 0.00 0.00 82 1018.0
20260903123105 77 271 1.0 9.0 0.00 0.00 0.00 83 1017.9
20260903122556 77 242 3.0 9.0 0.00 0.00 0.00 83 1018.1
20260903122056 77 227 3.0 8.0 0.00 0.00 0.00 84 1018.1
20260903121600 76 243 2.0 7.0 0.00 0.00 0.00 84 1018.1
20260903121056 76 281 3.0 7.0 0.00 0.00 0.00 84 1018.1
20260903120559 76 238 2.0 7.0 0.00 0.00 0.00 84 1018.1
20260903120107 76 263 3.0 6.0 0.00 0.00 0.00 84 1018.0
20260903115558 76 223 2.0 6.0 0.00 0.00 0.00 84 1018.1
20260903115059 76 260 3.0 6.0 0.00 0.00 0.00 84 1018.0
20260903114605 76 247 2.0 6.0 0.00 0.00 0.00 84 1017.9
20260903114056 75 244 2.0 7.0 0.00 0.00 0.00 85 1017.9
20260903113559 75 0 1.0 7.0 0.00 0.00 0.00 85 1017.8
20260903113102 75 248 0.0 4.0 0.00 0.00 0.00 85 1017.9
20260903112557 75 0 1.0 4.0 0.00 0.00 0.00 85 1017.8
20260903112100 75 267 1.0 3.0 0.00 0.00 0.00 85 1017.7
20260903111604 75 264 0.0 4.0 0.00 0.00 0.00 85 1017.5
20260903111059 75 259 1.0 5.0 0.00 0.00 0.00 85 1017.5
20260903110556 75 257 1.0 6.0 0.00 0.00 0.00 85 1017.4
20260903110103 75 241 1.0 7.0 0.00 0.00 0.00 85 1017.3
20260903105559 75 243 2.0 7.0 0.00 0.00 0.00 85 1017.4
20260903105059 75 288 2.0 8.0 0.00 0.00 0.00 85 1017.4
20260903104607 75 275 2.0 8.0 0.00 0.00 0.00 85 1017.3
20260903104056 75 273 2.0 9.0 0.00 0.00 0.00 85 1017.1
20260903103559 75 259 2.0 9.0 0.00 0.00 0.00 85 1017.3
20260903103103 75 284 2.0 7.0 0.00 0.00 0.00 85 1017.2
20260903102559 75 262 2.0 8.0 0.00 0.00 0.00 84 1017.2
20260903102056 75 286 2.0 8.0 0.00 0.00 0.00 84 1017.2
20260903101609 75 286 2.0 8.0 0.00 0.00 0.00 85 1017.1
20260903101104 75 235 2.0 8.0 0.00 0.00 0.00 85 1017.2
20260903100556 75 259 3.0 8.0 0.00 0.00 0.00 85 1017.1
20260903100109 75 263 2.0 8.0 0.00 0.00 0.00 85 1017.1
20260903095559 75 273 2.0 8.0 0.00 0.00 0.00 85 1017.2
20260903095056 75 282 3.0 8.0 0.00 0.00 0.00 85 1017.0
20260903094615 75 252 2.0 8.0 0.00 0.00 0.00 84 1017.0
20260903094056 75 241 1.0 7.0 0.00 0.00 0.00 84 1017.0
20260903093600 75 284 2.0 7.0 0.00 0.00 0.00 84 1017.1
20260903093115 76 273 2.0 7.0 0.00 0.00 0.00 84 1017.1
20260903092556 76 262 2.0 8.0 0.00 0.00 0.00 84 1017.0
20260903092100 76 0 2.0 8.0 0.00 0.00 0.00 84 1016.9
20260903091607 75 252 2.0 7.0 0.00 0.00 0.00 84 1016.8
20260903091059 75 247 3.0 8.0 0.00 0.00 0.00 85 1017.0
20260903090556 75 246 2.0 8.0 0.00 0.00 0.00 85 1016.9
20260903090107 75 226 2.0 8.0 0.00 0.00 0.00 85 1017.0
20260903085556 75 250 2.0 5.0 0.00 0.00 0.00 85 1017.0
20260903085059 75 264 1.0 4.0 0.00 0.00 0.00 85 1017.0
20260903084602 75 267 0.0 3.0 0.00 0.00 0.00 85 1017.1
20260903084100 75 274 1.0 4.0 0.00 0.00 0.00 85 1017.0
20260903083600 75 272 1.0 6.0 0.00 0.00 0.00 85 1016.9
20260903083100 75 258 1.0 6.0 0.00 0.00 0.00 85 1017.1
20260903082559 75 257 1.0 6.0 0.00 0.00 0.00 84 1016.9
20260903082059 75 246 1.0 6.0 0.00 0.00 0.00 84 1017.0
20260903081605 75 257 2.0 6.0 0.00 0.00 0.00 84 1017.0
20260903081102 76 258 2.0 6.0 0.00 0.00 0.00 84 1016.9
20260903080556 76 248 2.0 7.0 0.00 0.00 0.00 84 1016.9
20260903080110 76 244 3.0 7.0 0.00 0.00 0.00 84 1017.0
20260903075600 76 241 1.0 7.0 0.00 0.00 0.00 84 1017.0
20260903075059 76 258 3.0 7.0 0.00 0.00 0.00 84 1017.0
20260903074600 76 265 2.0 6.0 0.00 0.00 0.00 84 1016.9
20260903074059 76 259 2.0 6.0 0.00 0.00 0.00 84 1017.0
20260903073559 76 255 1.0 6.0 0.00 0.00 0.00 84 1017.1
20260903073107 76 271 2.0 6.0 0.00 0.00 0.00 84 1017.0
20260903072557 76 248 2.0 7.0 0.00 0.00 0.00 84 1017.0
20260903072057 76 269 2.0 7.0 0.00 0.00 0.00 84 1017.1
20260903071610 76 252 0.0 4.0 0.00 0.00 0.00 84 1017.0
20260903071056 76 263 1.0 4.0 0.00 0.00 0.00 84 1017.0
20260903070556 76 254 1.0 4.0 0.00 0.00 0.00 83 1017.1
20260903070107 76 0 1.0 4.0 0.00 0.00 0.00 83 1017.0
20260903065600 76 0 0.0 4.0 0.00 0.00 0.00 83 1017.1
20260903065056 76 281 1.0 4.0 0.00 0.00 0.00 83 1017.0
20260903064603 77 271 0.0 6.0 0.00 0.00 0.00 82 1017.0
20260903064056 77 269 1.0 6.0 0.00 0.00 0.00 82 1017.2
20260903063559 77 257 1.0 4.0 0.00 0.00 0.00 82 1017.1
20260903063127 77 0 1.0 4.0 0.00 0.00 0.00 82 1017.1
20260903062557 77 0 1.0 5.0 0.00 0.00 0.00 81 1017.1
20260903062059 77 279 0.0 6.0 0.00 0.00 0.00 81 1017.0
20260903061605 78 0 1.0 8.0 0.00 0.00 0.00 81 1017.1
20260903061057 78 0 2.0 8.0 0.00 0.00 0.00 81 1017.2
20260903060556 78 265 2.0 8.0 0.00 0.00 0.00 80 1017.1
20260903060118 78 255 3.0 8.0 0.00 0.00 0.00 80 1017.0
20260903055556 78 227 3.0 8.0 0.00 0.00 0.00 80 1017.0
20260903055059 78 259 3.0 8.0 0.00 0.00 0.00 80 1016.9
20260903054603 78 238 3.0 8.0 0.00 0.00 0.00 80 1017.1
20260903054056 78 254 3.0 9.0 0.00 0.00 0.00 80 1017.0
20260903053600 78 234 2.0 10.0 0.00 0.00 0.00 80 1016.8
20260903053105 78 233 3.0 10.0 0.00 0.00 0.00 80 1016.9
20260903052557 78 205 2.0 8.0 0.00 0.00 0.00 80 1017.0
20260903052057 78 219 3.0 8.0 0.00 0.00 0.00 80 1016.9
20260903051608 79 223 2.0 7.0 0.00 0.00 0.00 79 1016.7
20260903051057 79 242 2.0 8.0 0.00 0.00 0.00 79 1016.7
20260903050556 79 251 2.0 9.0 0.00 0.00 0.00 79 1016.6
20260903050128 79 245 2.0 9.0 0.00 0.00 0.00 79 1016.7
20260903045600 79 245 3.0 9.0 0.00 0.00 0.00 79 1016.7
20260903045100 79 234 3.0 8.0 0.00 0.00 0.00 79 1016.6
20260903044606 79 267 3.0 8.0 0.00 0.00 0.00 79 1016.5
20260903044058 79 0 3.0 8.0 0.00 0.00 0.00 79 1016.5
20260903043557 79 239 3.0 7.0 0.00 0.00 0.00 79 1016.4
20260903043103 79 218 3.0 7.0 0.00 0.00 0.00 78 1016.5
20260903042556 79 263 3.0 7.0 0.00 0.00 0.00 78 1016.4